DELTA 1 DEB, 10652

Orbit data source: Space-Track

DELTA 1 DEB, 10652 is space debris in LEO originally from a launch on Thu, 29 Jul 1976 UTC launched from the Air Force Western Test Range (AFWTR). Debris objects in space refer to the collection of defunct objects orbiting the Earth. Examples of debris include non-operational satellites, rocket bodies, and fragments generated from explosions, collisions, or faulty payload assembly.

Loading next visibility...
Identifier
10652, 1976-077N
Orbit
LEO
Country
Flag of USUS
Related business
Manufacturer
Unknown
Mission
Spacecraft
Bus & Motor
Unknown
Mass
Unknown
Launch date (UTC)
1976-07-29 (49 years ago)
Launch vehicle
Unknown
Launch site
Air Force Western Test Range (AFWTR)
Object type
Payload
Rocket body
Debris
Shape & HBR
Unknown shape, 0.1 m
Radar Cross Section
Small (<0.1 m²)

Expand to show TLE details & history
Last TLE update: 9 hours ago

TLE from 9 hours ago
0 DELTA 1 DEB
1 10652U 76077N   25352.91809034 -.00000978  00000-0 -10871-1 0  9996
2 10652 102.8746 240.6967 0248295 189.2935 170.3456 11.97823416130456
Epoch: 2025-12-18T22:02Z
TLE epoch observation values (Epoch: 2025-12-18T22:02:03.005Z)
Latitude
0.00004°
Longitude
-177.58254°
Altitude
1,890.747 km
Speed
6.859 km/s
True Right ascension
16h 02m 47s
True Declination
0° 00' 00"
Sunlit
Object was in daylight at epoch
Visualization orbit readout
Latitude
Unknown
Longitude
Unknown
Altitude
Unknown
Speed
Unknown
Apparent Right ascension
Unknown
Apparent Declination
Unknown
Sunlit
N/A
Visualization observer readout
Local Sidereal Time
06:06:00
Azimuth
Unknown
Elevation
Unknown
Doppler factor
Unknown
Orbital elements
Apogee altitude
1,888.586 km
Perigee altitude
1,488.015 km
Semi-major axis
8,066.438 km
Eccentricity
0.02483
Inclination
102.8746°
RAAN
240.6967°
Arg. of periapsis
189.2935°
True anomaly
170.80857°
Mean anomaly
170.3456°
Eccentric anomaly
170.57848°
Mean motion
2.99585 °/min
Orbital period
120.17 mins
BSTAR
-0.010871
Loading maneuver chart data...
Computing Atmospheric mass density...
Loading historical data...
Loading historical data...
Loading historical data...
Loading historical data...
Loading historical data...
Loading historical data...
Loading historical data...

Documentation

Showing up to 5 results
|